Theta_e
335 337 348 352 359 360 354 355 349 350 350 347 347 347 352 350 349 354 345 343 341 342 341 341 341 342 347 342 341 340 340 346 350 351 350 351 352 352 352 350 350 352 353 352 351 350 351 349 347
339 345 348 358 360 348 351 351 352 350 349 347 348 348 350 352 348 347 348 344 340 341 341 340 340 342 344 341 343 345 346 347 347 352 349 352 351 352 352 353 353 348 347 345 349 349 350 345 344
347 347 356 357 360 354 358 350 346 349 347 347 349 347 348 350 347 347 347 341 341 340 341 342 341 342 348 345 344 342 350 347 348 345 350 351 352 353 352 352 351 350 344 337 339 341 342 341 342
350 351 357 361 361 350 354 350 346 348 348 347 348 352 348 347 346 347 345 344 341 343 346 344 346 350 351 351 348 343 349 348 352 351 352 353 352 352 353 352 352 351 344 339 339 338 341 343 344
348 353 364 362 359 353 351 348 346 347 350 350 347 353 351 347 347 347 348 343 345 349 347 346 347 345 349 352 352 351 351 351 352 352 353 351 352 351 352 351 350 350 349 341 331 337 343 343 340
358 354 360 362 359 356 353 351 351 348 350 350 351 351 350 348 348 349 346 341 344 347 348 348 348 348 347 351 351 352 351 352 351 348 348 349 347 352 347 348 350 351 347 334 328 327 340 340 339
359 358 360 358 355 353 354 348 349 347 347 349 347 351 347 347 349 348 346 339 344 347 349 349 349 352 351 346 346 351 348 351 351 350 346 343 342 342 346 349 350 350 345 338 334 327 331 339 338
357 357 361 360 358 359 353 352 346 346 345 345 346 353 351 347 348 348 345 345 345 346 347 349 350 346 350 349 346 344 351 352 352 347 343 342 339 346 351 347 350 350 345 337 333 333 334 337 338
347 358 362 358 360 360 355 352 346 343 345 344 344 347 346 345 346 347 346 346 345 341 338 341 346 346 344 345 350 349 347 350 350 347 342 342 345 344 344 343 343 343 343 340 336 335 336 337 338
353 356 359 351 354 355 355 350 348 346 346 346 348 346 343 343 344 343 344 345 347 345 343 340 341 342 343 345 343 346 343 340 338 341 344 344 344 344 340 340 342 344 342 343 344 345 343 341 340
349 355 353 352 352 349 356 351 348 350 352 348 349 346 344 345 344 345 346 348 348 347 348 346 347 340 340 341 343 345 346 345 338 346 348 344 342 342 339 341 339 344 345 346 346 347 346 347 348
349 349 350 348 351 355 357 352 352 350 347 345 345 345 345 345 346 347 346 346 348 348 349 348 346 345 339 341 346 350 350 347 346 346 347 345 345 344 340 339 343 345 347 348 346 341 344 347 347
352 354 349 347 347 353 353 352 351 348 344 343 345 345 345 346 346 347 345 347 347 347 336 346 345 347 342 347 348 349 350 349 348 345 344 344 341 338 343 343 345 346 347 347 345 346 347 346 345
353 350 348 351 351 355 352 350 348 346 343 344 343 343 344 346 345 345 345 346 345 344 345 345 344 347 348 347 348 349 348 347 344 343 344 342 342 343 345 344 345 345 346 345 348 347 346 346 345
348 351 355 352 356 352 348 353 352 346 344 344 342 341 345 345 344 346 347 347 347 345 345 348 349 348 348 346 347 348 348 343 344 342 345 345 343 344 346 348 345 352 347 348 347 348 346 344 344
357 357 362 358 355 351 351 355 348 344 345 345 342 343 344 344 345 347 347 347 348 348 348 347 345 344 346 346 345 346 345 346 344 341 343 345 341 344 347 349 350 351 351 351 349 351 348 346 345
357 363 358 361 356 353 355 354 349 345 344 345 341 344 344 343 345 347 348 347 347 346 347 346 344 343 342 344 344 345 346 347 344 345 338 340 343 345 345 347 350 349 348 352 352 354 355 347 346
351 357 354 363 360 355 357 355 349 345 346 347 347 344 345 344 343 345 346 348 346 346 344 341 341 344 342 345 345 344 348 345 340 347 346 347 345 341 346 347 349 350 351 351 353 354 354 350 350
338 354 360 357 354 360 357 356 350 346 347 349 349 344 345 344 342 344 345 347 347 347 345 340 343 344 345 345 347 347 346 345 346 347 347 347 335 348 346 349 347 346 346 353 354 354 354 357 348
336 353 356 354 354 357 359 357 349 346 346 350 350 344 345 345 343 344 345 346 347 348 347 343 341 342 345 344 343 347 347 346 347 348 348 348 350 349 349 349 348 348 349 353 352 355 355 353 353
346 352 356 356 356 354 358 360 353 349 353 353 349 347 346 346 344 344 346 347 347 348 347 346 344 342 347 346 346 347 350 349 348 348 348 349 349 348 349 347 349 342 348 352 353 355 353 349 346
351 349 353 355 354 359 350 361 356 353 351 355 351 346 347 348 346 344 346 347 349 348 347 346 343 342 345 348 348 347 347 348 347 347 345 348 346 345 347 351 351 349 349 353 353 354 351 345 344
351 349 350 351 345 349 351 352 349 352 353 350 352 346 345 346 346 345 345 347 347 349 348 346 346 346 345 347 347 347 346 345 346 346 347 344 348 346 348 350 349 351 349 352 352 354 352 337 347
345 346 349 348 350 355 352 353 352 353 352 348 350 348 344 345 346 346 348 348 348 349 350 348 346 344 344 346 348 350 346 346 348 346 347 346 347 348 349 349 349 348 347 351 354 354 353 350 350
345 344 348 348 349 351 351 355 353 351 349 348 348 350 343 345 345 347 348 347 349 350 350 348 347 345 346 348 350 349 349 348 349 349 348 347 347 346 346 347 350 347 346 352 354 352 352 353 353
339 336 338 348 345 343 350 360 358 351 347 349 348 347 342 343 344 345 347 347 348 349 350 350 348 348 347 350 350 349 348 350 349 349 347 347 349 348 346 344 351 349 349 354 353 353 352 353 354
327 331 331 337 335 334 350 357 355 351 353 350 348 348 342 342 342 345 346 346 348 350 350 351 350 349 349 351 348 348 349 351 350 350 350 350 351 351 349 348 347 349 350 350 353 350 352 352 354
324 324 322 321 332 337 346 358 358 356 351 354 350 347 344 341 341 342 345 346 347 347 350 352 351 349 348 349 350 348 351 350 349 351 351 352 351 349 350 349 349 350 349 353 352 350 351 350 352
321 320 318 318 322 329 344 347 350 346 347 345 340 341 345 344 342 342 344 345 344 347 348 352 352 350 349 350 350 352 352 351 351 351 352 351 351 350 350 351 350 351 350 352 350 348 349 349 350
319 320 316 319 321 321 327 345 343 346 345 347 346 343 343 346 341 344 343 345 344 345 349 353 352 351 351 353 352 351 349 350 352 352 351 352 351 351 348 348 350 349 352 350 349 350 349 352 350
Wind_Speed
3 0 2 1 3 4 2 8 7 6 7 7 12 11 9 5 4 6 20 23 26 23 20 20 20 19 17 17 16 15 16 14 16 16 17 18 19 19 19 19 18 16 16 17 16 16 18 17 16
2 1 2 0 4 4 3 9 19 16 14 18 15 15 11 6 9 13 18 26 27 25 23 23 21 20 17 16 15 12 15 13 14 17 18 17 18 18 18 17 16 14 14 15 15 16 15 17 16
4 5 1 2 2 2 5 9 11 16 12 12 7 12 6 6 16 16 27 29 28 26 24 23 20 19 16 15 15 14 14 15 14 17 18 17 17 16 16 15 15 15 13 13 14 15 14 14 14
4 1 2 3 3 3 10 11 20 18 17 14 16 9 8 9 18 21 34 30 29 26 23 22 20 18 18 17 16 17 17 16 16 16 16 16 15 14 13 13 12 11 9 10 11 13 14 13 11
2 2 1 3 11 11 12 10 16 12 8 15 16 11 10 16 28 35 34 33 32 27 23 21 21 20 19 18 17 16 17 17 17 16 15 15 14 13 12 11 11 10 9 9 11 14 14 12 10
2 1 3 3 15 14 9 17 3 17 16 17 18 13 7 31 34 31 33 34 31 28 23 20 19 19 19 17 17 17 17 17 16 16 16 15 14 13 13 13 11 9 9 9 11 11 13 11 11
3 1 1 4 12 13 11 14 15 17 19 11 16 16 7 18 33 34 31 32 29 27 25 23 20 18 18 17 15 16 16 17 17 16 15 16 14 12 11 10 9 8 7 7 8 10 12 12 10
3 2 5 4 6 4 8 8 14 19 10 20 19 7 10 15 31 31 29 28 27 25 24 23 20 20 18 18 15 16 16 16 14 13 12 13 13 11 9 8 7 5 6 6 7 10 11 10 8
2 4 4 5 3 2 5 11 9 13 22 15 6 17 19 27 33 28 23 24 24 22 22 21 21 19 17 17 15 14 14 14 13 12 11 11 9 8 6 6 6 5 5 6 7 5 4 5 6
4 2 4 3 5 7 4 15 19 15 13 15 19 21 31 31 31 27 22 21 19 23 22 21 21 18 18 17 16 15 15 14 15 14 12 10 8 7 4 3 2 2 1 1 1 2 3 4 4
2 2 2 0 3 4 4 2 8 17 7 21 26 23 24 25 28 24 23 22 27 25 24 22 19 19 18 18 19 19 17 13 13 13 11 10 7 4 4 2 4 3 3 6 7 4 4 6 7
7 11 8 5 8 4 8 4 10 17 15 25 26 27 26 18 21 24 23 22 29 28 25 22 20 16 17 20 18 16 14 10 10 9 9 10 7 4 4 2 4 5 6 4 3 0 3 6 2
5 11 12 12 17 10 8 2 12 14 18 25 24 25 20 18 19 21 27 30 25 27 24 25 22 17 18 17 15 14 9 12 9 10 11 6 8 6 4 5 3 5 2 3 1 1 2 4 8
16 11 13 11 5 6 4 4 10 11 19 22 23 20 18 19 20 19 24 25 27 27 23 21 19 16 19 17 14 14 14 11 10 9 11 10 10 5 3 5 4 8 5 5 3 4 1 2 6
15 10 5 11 8 5 2 6 4 12 11 15 14 18 20 23 26 22 26 29 32 29 26 24 19 14 21 19 17 16 13 15 8 8 17 6 8 8 1 6 8 9 4 6 2 6 3 1 3
8 8 8 10 11 6 2 5 3 3 14 11 11 16 16 20 27 26 26 30 32 29 30 27 23 18 18 20 15 16 18 17 15 9 12 9 10 4 3 4 7 8 8 4 3 6 5 7 5
4 3 4 6 3 4 1 7 5 2 12 11 10 16 15 12 21 24 31 33 33 34 28 27 24 23 17 19 13 19 18 18 16 12 10 9 9 4 5 5 7 7 8 10 9 11 12 5 10
8 7 6 8 4 3 3 2 2 3 7 3 5 18 16 17 17 28 29 30 37 32 28 25 23 21 21 13 15 18 16 19 19 12 10 8 3 11 6 6 5 8 7 10 12 13 12 7 2
5 2 8 4 6 6 5 7 6 5 4 3 4 13 18 17 19 27 31 31 32 31 28 28 23 20 16 14 15 15 20 15 18 15 11 6 8 7 7 6 3 6 9 10 11 13 13 15 8
10 2 5 4 5 1 4 4 4 4 3 3 4 17 14 7 13 21 26 26 33 34 30 28 27 24 16 15 10 12 13 20 20 16 13 9 6 6 5 4 4 5 7 9 13 14 13 16 13
4 7 9 6 8 3 4 3 6 0 2 8 2 0 7 15 18 14 22 24 29 33 33 29 27 25 19 12 10 13 18 17 16 15 11 9 7 6 5 2 5 5 5 10 14 15 15 17 26
5 3 11 12 9 3 5 3 2 4 5 6 8 5 6 10 13 10 19 21 27 31 33 30 27 24 19 15 12 17 18 18 21 18 15 12 9 6 7 3 1 3 6 10 12 14 17 12 9
6 16 9 10 5 4 3 4 5 8 13 17 14 12 8 7 15 13 12 18 23 29 33 32 27 24 22 18 13 14 17 15 15 17 16 13 11 11 9 6 4 1 4 7 8 10 15 18 18
15 17 7 5 3 3 9 3 4 10 28 17 12 14 12 7 7 14 17 20 21 21 26 30 27 25 26 21 16 15 14 12 10 16 14 16 15 12 10 11 6 3 1 4 5 8 8 11 14
16 10 1 3 3 2 10 3 6 5 16 17 16 11 15 14 10 12 12 17 23 24 25 29 27 26 27 23 20 18 16 14 12 15 17 17 16 15 15 11 9 5 2 2 3 4 6 8 11
12 8 4 5 4 4 4 5 3 7 10 14 14 14 8 11 9 11 15 18 15 24 27 27 27 26 29 26 23 19 18 15 15 15 18 16 17 16 14 15 10 8 5 5 3 3 4 5 11
6 6 10 5 2 3 5 1 4 4 8 12 11 15 15 13 10 11 17 23 16 25 30 30 30 29 28 26 25 21 20 17 15 15 19 16 13 18 18 18 15 10 8 7 3 2 2 3 6
7 5 3 3 3 4 3 4 5 9 11 14 14 16 13 15 13 10 16 21 25 24 28 32 30 31 30 29 25 24 20 18 16 14 16 15 12 12 16 18 20 15 12 12 8 4 1 1 2
3 2 4 4 4 5 3 4 4 13 6 9 2 3 11 19 18 15 18 26 29 32 26 32 32 32 29 27 25 24 21 20 17 15 14 12 13 11 12 17 17 16 14 12 7 4 4 2 3
5 3 3 5 6 3 4 4 5 6 7 9 4 4 4 5 16 15 22 21 26 31 30 31 34 32 28 26 23 23 21 20 20 18 16 15 14 12 14 16 15 14 13 14 12 9 5 5 5
Wind_Direction
259 183 352 352 45 66 62 89 116 100 71 64 101 117 89 36 103 136 150 151 138 134 132 129 131 133 139 138 133 127 109 113 117 115 116 114 116 115 113 112 111 112 111 108 107 112 116 116 110
232 304 301 167 74 91 62 120 84 91 103 93 67 84 54 77 64 115 126 146 139 137 136 132 133 136 138 140 139 134 119 111 120 120 117 116 116 115 116 115 111 108 108 114 120 125 120 115 112
239 216 313 66 41 134 112 104 113 116 114 106 101 79 74 93 119 138 146 143 141 138 136 134 132 136 139 140 138 132 125 129 124 121 121 119 118 116 116 115 111 105 103 116 126 131 126 125 115
338 70 74 61 327 337 121 121 111 100 83 90 119 74 88 135 145 138 144 143 143 139 136 136 134 136 138 139 139 135 135 133 129 125 120 117 118 116 115 114 114 115 122 128 130 134 135 129 122
336 47 324 31 76 111 101 102 97 105 78 98 100 105 104 119 130 139 146 147 143 142 139 137 133 133 137 136 136 137 137 140 130 124 122 125 128 126 124 127 129 124 121 130 136 140 140 137 121
56 23 53 126 112 111 102 98 188 104 113 105 103 119 113 133 132 141 148 147 144 143 141 136 131 131 134 135 134 137 142 137 130 130 128 129 131 131 133 129 129 132 124 125 131 142 145 136 122
85 287 239 165 129 126 136 155 138 127 125 129 128 110 126 141 143 147 149 146 146 144 142 141 138 134 133 134 137 141 141 139 140 136 131 131 133 133 129 130 129 128 125 124 130 136 151 147 140
116 89 320 359 140 86 149 124 142 130 117 117 124 134 149 149 139 139 141 145 147 148 147 143 144 144 138 140 139 141 140 144 143 136 132 132 129 122 118 120 115 113 106 106 110 126 146 156 149
98 39 333 37 1 78 303 148 136 130 131 145 110 136 137 146 137 136 139 146 151 153 151 152 149 145 143 139 136 135 136 137 143 142 130 126 128 123 125 128 122 118 114 104 105 120 148 174 166
73 41 327 31 290 161 264 136 134 135 134 113 113 128 142 142 143 142 149 156 157 152 154 151 149 150 148 145 140 130 127 135 138 136 133 131 140 142 142 145 168 185 158 118 178 213 230 255 264
64 190 96 327 282 245 274 218 123 136 171 142 143 148 146 150 148 152 161 165 160 153 154 155 152 150 153 149 139 136 140 142 129 153 152 151 161 165 192 227 307 301 280 277 281 249 259 278 272
128 249 238 210 242 296 265 174 147 161 163 148 151 152 150 162 156 152 147 155 156 159 163 160 161 156 156 153 153 152 158 153 157 152 159 158 163 204 242 304 4 351 349 329 297 348 8 35 58
174 224 220 217 191 242 236 133 161 154 149 153 149 150 153 154 154 151 146 154 158 168 171 165 171 177 165 162 160 165 159 158 149 156 157 147 187 179 277 324 317 337 1 106 283 1 329 96 85
179 165 190 206 222 280 110 3 115 148 141 158 150 156 153 155 156 150 152 157 153 147 153 158 160 172 176 173 171 173 170 181 174 174 174 138 143 160 286 333 340 0 354 327 328 1 272 134 121
129 120 147 226 233 220 19 72 61 132 175 154 142 147 151 163 151 164 161 158 159 162 161 158 153 163 179 168 182 188 185 170 163 136 137 133 161 157 61 23 62 23 6 353 295 331 274 253 141
134 114 188 196 202 196 161 169 170 243 170 172 142 157 149 150 162 163 158 158 160 159 162 163 160 155 152 169 177 182 174 177 157 133 156 139 154 145 116 58 66 30 56 31 340 13 252 233 239
109 156 262 260 236 146 133 165 181 17 181 184 145 155 154 140 156 161 165 165 164 162 163 159 160 165 167 167 165 176 185 179 170 147 159 183 169 218 135 91 41 85 79 52 54 50 51 205 243
173 177 218 203 12 252 105 162 185 147 114 124 84 159 158 154 163 167 169 170 166 164 163 157 156 163 171 176 159 185 190 175 168 164 163 161 168 147 90 96 51 63 78 50 38 36 47 82 55
289 12 155 126 359 223 202 186 214 162 129 98 95 173 166 169 157 157 157 168 168 166 164 161 161 162 171 157 156 177 183 189 172 181 176 163 134 130 102 73 83 59 67 43 47 39 53 39 33
272 173 69 92 235 209 9 292 289 172 182 107 127 156 170 124 149 152 158 155 166 171 173 172 164 171 172 183 172 149 176 186 187 193 187 178 155 132 112 92 73 64 72 51 55 42 45 50 45
158 150 178 179 117 50 183 132 295 47 116 74 27 15 137 148 157 161 160 161 167 167 174 176 169 178 174 184 180 154 157 160 170 181 188 188 163 154 171 138 50 38 80 61 51 47 53 86 70
98 287 154 132 140 161 349 144 315 295 257 171 190 223 168 139 151 153 168 162 168 175 176 177 172 178 182 182 173 171 171 163 177 185 196 200 199 193 174 168 70 42 52 62 55 51 53 84 94
148 147 143 141 77 102 330 89 238 288 252 221 186 199 199 173 161 162 170 180 170 174 177 180 178 181 187 189 190 186 184 188 186 196 197 202 211 214 193 200 221 207 68 70 60 52 66 85 91
130 95 91 77 107 107 219 226 218 217 227 221 220 182 191 179 154 140 155 179 177 176 183 185 183 183 184 193 201 211 210 200 207 197 204 203 205 200 202 208 220 257 39 63 72 69 62 86 72
109 96 6 5 5 229 192 259 249 262 227 217 218 211 188 183 164 151 157 167 179 181 194 192 193 195 188 195 203 209 206 208 219 215 211 219 205 212 214 212 215 229 202 148 92 88 60 95 85
143 156 174 175 178 162 189 242 242 290 208 171 192 184 187 181 179 171 172 166 175 189 195 197 196 204 197 197 204 209 209 210 221 228 217 220 224 227 228 223 214 219 200 177 157 135 78 67 86
124 177 184 120 337 80 175 55 320 282 114 137 162 163 177 189 179 182 177 188 186 188 195 203 203 207 206 205 203 208 210 215 216 209 220 225 236 238 227 220 221 225 213 202 211 191 135 90 91
139 177 70 3 154 218 183 157 187 230 190 165 165 174 183 183 179 184 181 181 183 187 194 205 207 207 210 209 206 204 210 213 213 215 215 225 236 247 223 217 212 212 207 203 210 226 233 8 122
43 35 71 128 145 172 171 235 52 227 190 160 207 279 186 180 184 183 191 190 187 196 196 202 207 208 209 208 206 206 209 213 213 218 216 219 216 208 204 202 211 209 209 212 203 253 219 284 238
112 28 101 125 268 184 144 254 2 62 63 79 61 100 314 314 185 180 182 174 171 185 192 192 200 204 208 212 213 217 215 215 215 221 219 213 213 215 206 203 210 214 222 207 214 209 203 202 236